This demonstration page uses our WeatherBlox Daily Observations layout. Learn more.

Left ArrowRight Arrow

39.51506, -84.39828

Hourly Observations for April 27, 2016

Temp ( °F °C ) Dew Point ( °F °C ) Humidity (%) Winds ( mph kmh ) Pressure ( in mb ) Visibility ( mi km ) Precip ( " mm )
12:15 am 00:15 Cloudy with Haze 60 15.3 53 11.7 79 79 NNE 6 9 29.83 1010 4 6 N/A
12:35 am 00:35 Cloudy with Light Rain 57 13.8 50 10.2 79 79 NNE 8 13 29.83 1010 4 6 N/A
12:55 am 00:55 Cloudy with Haze 57 13.8 50 10.1 79 79 N 9 15 29.88 1012 4 6 N/A
1:15 am 01:15 Cloudy with Haze 56 13.4 49 9.5 77 77 undefined N/A 29.85 1011 4 6 N/A
1:35 am 01:35 Cloudy with Light Rain 55 12.5 47 8.6 77 77 NE 14 22 29.85 1011 4 6 N/A
1:55 am 01:55 Cloudy with Light Rain 55 12.5 48 9 79 79 NE 12 19 29.85 1011 4 6 N/A
2:15 am 02:15 Cloudy with Rain 55 12.5 48 9 79 79 NE 14 22 29.85 1011 3 5 N/A
2:35 am 02:35 Cloudy with Haze 55 12.5 48 9 79 79 NE 10 17 29.85 1011 4 6 N/A
2:55 am 02:55 Cloudy with Haze 55 12.5 48 9.1 80 80 NNE 10 17 29.85 1011 4 6 N/A
3:15 am 03:15 Cloudy with Haze 52 11.3 46 8 80 80 undefined N/A 29.85 1011 5 8 N/A
3:35 am 03:35 Cloudy with Haze 52 11 46 7.6 80 80 undefined N/A 29.85 1011 5 8 N/A
3:55 am 03:55 Cloudy with Haze 52 11 46 7.6 80 80 NNE 7 11 29.88 1012 5 8 N/A
4:15 am 04:15 Cloudy with Haze 52 11 46 7.5 79 79 NE 7 11 29.88 1012 5 8 N/A
4:35 am 04:35 Cloudy with Haze 52 11 46 7.5 79 79 NE 9 15 29.88 1012 5 8 N/A
4:55 am 04:55 Cloudy with Haze 52 11 46 7.5 79 79 NNE 6 9 29.88 1012 5 8 N/A
5:15 am 05:15 Cloudy with Haze 51 10.6 45 7.1 79 79 NNE 7 11 29.88 1012 5 8 N/A
5:35 am 05:35 Cloudy with Haze 51 10.4 44 6.9 79 79 NNE 7 11 29.88 1012 5 8 N/A
5:55 am 05:55 Cloudy with Haze 51 10.3 44 6.8 79 79 NNE 8 13 29.88 1012 5 8 N/A
6:15 am 06:15 Cloudy with Haze 50 10.2 44 6.6 79 79 NE 9 15 29.88 1012 5 8 N/A
6:35 am 06:35 Cloudy with Haze 51 10.3 44 6.8 79 79 NE 8 13 29.88 1012 5 8 N/A
6:55 am 06:55 Cloudy with Haze 49 9.6 43 6.2 80 80 NNE 8 13 29.91 1013 5 8 N/A
7:15 am 07:15 Cloudy with Haze 49 9.6 43 6.1 79 79 NE 9 15 29.91 1013 4 6 N/A
7:35 am 07:35 Cloudy with Haze 49 9.6 43 6 78 78 NE 10 17 29.91 1013 5 8 N/A
7:55 am 07:55 Cloudy with Haze 49 9.6 43 6 78 78 NNE 10 17 29.91 1013 5 8 N/A
8:15 am 08:15 Cloudy with Haze 49 9.6 43 6 78 78 NE 9 15 29.91 1013 4 6 N/A
8:35 am 08:35 Cloudy with Haze 49 9.6 42 5.8 77 77 NE 13 20 29.91 1013 4 6 N/A
8:55 am 08:55 Cloudy with Haze 49 9.6 43 6 78 78 NE 10 17 29.91 1013 4 6 N/A
9:15 am 09:15 Cloudy with Haze 49 9.6 43 6 78 78 ENE 9 15 29.91 1013 4 6 N/A
9:35 am 09:35 Cloudy with Haze 49 9.6 43 6 78 78 ENE 9 15 29.91 1013 4 6 N/A
9:55 am 09:55 Cloudy with Haze 49 9.6 43 6 78 78 ENE 9 15 29.91 1013 3 5 N/A
10:15 am 10:15 Cloudy with Haze 49 9.6 43 6 78 78 ENE 10 17 29.88 1012 3 5 N/A
10:35 am 10:35 Cloudy with Haze 50 10.1 44 6.5 79 79 ENE 10 17 29.88 1012 3 4 N/A
10:55 am 10:55 Cloudy with Haze 51 10.3 44 6.6 78 78 ENE 8 13 29.88 1012 3 5 N/A
11:15 am 11:15 Cloudy with Haze 51 10.4 44 6.6 78 78 NE 7 11 29.88 1012 4 6 N/A
11:35 am 11:35 Cloudy with Haze 52 11 45 7 77 77 ENE 5 7 29.91 1013 4 6 N/A
11:55 am 11:55 Cloudy with Haze 54 12.4 47 8.2 76 76 undefined N/A 29.91 1013 4 6 N/A
12:15 pm 12:15 Cloudy with Haze 55 12.5 46 7.9 74 74 undefined N/A 29.91 1013 5 8 N/A
12:35 pm 12:35 Cloudy with Haze 55 12.5 46 7.5 72 72 ENE 7 11 29.91 1013 5 8 N/A
12:55 pm 12:55 Cloudy with Haze 56 13.6 47 8.5 72 72 ENE 8 13 29.88 1012 5 8 N/A
1:15 pm 13:15 Cloudy with Haze 57 13.8 47 8.4 70 70 NE 7 11 29.88 1012 5 8 N/A
1:35 pm 13:35 Cloudy with Haze 57 13.8 47 8.1 69 69 E 7 11 29.88 1012 5 8 N/A
1:55 pm 13:55 Cloudy with Haze 57 13.8 47 8.2 69 69 ENE 7 11 29.88 1012 5 8 N/A
2:15 pm 14:15 Cloudy with Haze 58 14.2 47 8.3 68 68 NE 5 7 29.85 1011 5 8 N/A
2:35 pm 14:35 Cloudy with Haze 60 15.3 48 9.1 67 67 NE 9 15 29.85 1011 5 8 N/A
2:55 pm 14:55 Cloudy with Haze 60 15.7 48 8.9 64 64 NE 3 6 29.85 1011 5 8 N/A
3:15 pm 15:15 Cloudy 61 16 49 9.3 65 65 ENE 6 9 29.85 1011 7 11 N/A
3:35 pm 15:35 Cloudy 60 15.7 49 9.2 65 65 N N/A 29.85 1011 7 11 N/A
3:55 pm 15:55 Cloudy 61 16.1 49 9.4 65 65 NE 5 7 29.85 1011 7 11 N/A
4:15 pm 16:15 Cloudy 62 16.6 49 9.7 64 64 NE 8 13 29.85 1011 7 11 N/A
4:35 pm 16:35 Cloudy 62 16.6 50 10 65 65 NE 8 13 29.85 1011 7 11 N/A
4:55 pm 16:55 Cloudy 62 16.6 50 9.8 64 64 ENE 7 11 29.85 1011 7 11 N/A
5:15 pm 17:15 Cloudy 62 16.7 50 9.9 64 64 ENE 7 11 29.85 1011 7 11 N/A
5:35 pm 17:35 Cloudy 62 16.6 50 10 65 65 ENE 5 7 29.85 1011 7 11 N/A
5:55 pm 17:55 Cloudy with Drizzle 62 16.7 51 10.3 66 66 ENE 9 15 29.83 1010 5 8 N/A
6:15 pm 18:15 Cloudy with Haze 63 17 52 10.9 68 68 ENE 16 26 29.80 1009 5 8 N/A
6:35 pm 18:35 Cloudy with Haze 62 16.6 50 10.2 66 66 E 9 15 29.83 1010 5 8 N/A
6:55 pm 18:55 Cloudy with Haze 62 16.6 51 10.7 68 68 ENE 8 13 29.83 1010 5 8 N/A
7:15 pm 19:15 Cloudy with Haze 62 16.6 51 10.6 68 68 ENE 9 15 29.83 1010 5 8 N/A
7:35 pm 19:35 Cloudy with Haze 62 16.6 51 10.6 68 68 ENE 9 15 29.83 1010 5 8 N/A
7:55 pm 19:55 Cloudy with Haze 62 16.6 50 10.1 66 66 E 8 13 29.83 1010 5 8 N/A
8:15 pm 20:15 Cloudy 62 16.6 49 9.5 63 63 E 13 20 29.83 1010 7 11 N/A
8:35 pm 20:35 Cloudy 61 16 48 9 63 63 E 6 9 29.83 1010 7 11 N/A
8:55 pm 20:55 Cloudy 61 16 48 8.7 62 62 ENE 9 15 29.83 1010 10 16 N/A
9:15 pm 21:15 Mostly Cloudy 61 16 48 8.8 63 63 ENE 7 11 29.83 1010 10 16 N/A
9:35 pm 21:35 Mostly Cloudy 60 15.6 48 8.7 64 64 E 6 9 29.83 1010 10 16 N/A
9:55 pm 21:55 Cloudy with Drizzle 61 16 48 9.1 64 64 ENE 5 7 29.83 1010 10 16 N/A
10:15 pm 22:15 Cloudy with Drizzle 61 15.9 49 9.2 65 65 ENE 5 7 29.85 1011 10 16 N/A
10:35 pm 22:35 Cloudy with Rain 60 15.3 50 9.8 70 70 E 5 7 29.83 1010 7 11 N/A
10:55 pm 22:55 Cloudy with Rain 60 15.3 51 10.4 73 73 NE 6 9 29.83 1010 7 11 N/A
11:15 pm 23:15 Cloudy with Drizzle 60 15.3 51 10.7 74 74 NNE 5 7 29.83 1010 7 11 N/A
11:35 pm 23:35 Cloudy with Light Rain 60 15.3 52 11.2 77 77 ENE 3 6 29.83 1010 5 8 N/A
11:55 pm 23:55 Cloudy with Light Rain 60 15.3 53 11.5 78 78 N N/A 29.83 1010 5 8 N/A

Powered by AerisWeather